Wind_Speed
15 16 16 16 15 15 15 14 13 12 11 10 10 9 7 6 4 4 3 1 0 1 2 2 2 2 3 4 5 6 6 6 6 7 7 8 8 9 9 9 10 10 10
13 14 15 15 14 14 14 14 13 12 11 10 9 9 8 7 5 4 3 2 1 2 3 3 2 2 3 4 5 5 6 7 7 8 8 8 9 10 10 11 11 11 12
12 13 13 13 13 13 12 12 12 11 11 10 9 9 8 7 5 5 4 3 2 1 2 3 3 3 4 5 6 6 7 7 8 8 9 10 10 11 12 11 11 12 12
10 11 12 12 12 12 11 12 11 11 11 10 9 9 8 7 6 5 4 4 3 3 3 3 4 5 5 5 6 7 7 8 8 9 9 10 10 11 12 12 12 12 13
9 10 10 10 11 11 10 11 11 10 10 10 9 9 8 7 6 5 4 4 4 4 4 4 4 5 6 6 7 8 8 9 9 10 10 11 11 12 12 13 13 13 13
8 9 9 9 9 9 9 9 9 9 9 9 9 9 8 8 7 7 5 4 4 4 4 5 5 6 7 7 8 9 9 10 11 11 12 12 12 12 13 14 14 14 15
8 8 9 8 9 9 8 9 9 9 9 9 9 9 8 8 8 7 7 6 6 6 6 6 7 7 7 8 9 10 10 11 12 13 13 14 14 14 14 15 15 16 16
8 8 8 9 8 8 8 8 9 9 9 9 9 9 8 8 8 8 8 8 8 8 7 7 8 8 8 9 9 10 10 11 12 13 14 15 15 15 15 16 16 17 18
9 9 9 9 8 8 7 7 8 9 9 9 9 9 9 9 9 9 9 9 9 8 8 8 9 9 9 9 10 10 11 12 13 14 15 15 15 15 16 16 17 17 18
11 10 10 10 9 8 8 8 8 9 9 10 10 10 9 9 10 10 9 10 9 9 9 9 9 9 10 10 10 11 12 12 13 14 15 16 16 16 16 16 17 17 18
13 12 11 10 10 10 9 9 9 9 10 10 10 10 10 10 10 10 10 10 10 10 10 10 9 10 10 11 11 12 12 12 13 14 14 14 14 14 15 15 16 17 18
13 13 11 11 11 11 10 10 10 10 11 11 11 11 11 11 11 11 11 11 11 12 12 12 11 11 11 12 12 12 13 13 14 14 14 14 15 16 16 17 17 18 18
15 15 14 13 12 11 11 11 11 11 12 12 12 13 13 13 13 13 13 13 13 13 13 13 13 13 12 13 13 14 14 14 14 15 15 16 16 17 17 17 18 18 19
18 18 17 15 14 13 13 13 13 13 13 14 14 15 15 15 15 15 14 14 15 15 15 15 15 15 14 14 15 15 15 15 15 15 15 16 17 18 19 19 19 19 20
21 21 20 18 17 16 16 16 16 17 16 16 16 16 17 17 17 17 17 17 17 17 17 17 17 17 17 16 17 16 16 16 16 16 17 17 18 19 20 20 20 21 21
24 24 23 22 20 19 18 19 19 18 19 19 18 18 19 20 20 20 20 19 19 19 20 20 19 18 19 19 19 19 18 18 18 18 18 19 20 21 21 21 21 22 23
26 25 24 22 22 22 22 22 22 21 21 21 21 21 21 22 22 21 21 22 21 21 20 21 20 20 20 20 20 20 20 20 20 20 21 21 21 22 22 23 23 23 24
28 27 27 26 25 24 24 24 24 24 24 25 25 25 25 24 23 23 23 23 23 22 21 21 20 19 20 20 20 21 22 22 22 22 22 22 23 23 24 24 25 25 26
31 30 28 27 27 26 26 26 26 26 26 26 26 26 27 26 24 24 24 24 24 24 23 22 21 21 21 21 22 22 23 23 24 24 24 24 24 25 25 25 26 26 27
32 32 31 31 29 29 28 28 27 28 28 28 27 28 28 27 26 26 25 25 25 25 25 25 23 23 23 23 24 24 25 25 26 26 26 26 27 27 27 27 28 28 29
34 34 34 33 32 31 30 30 30 30 30 30 30 30 30 29 29 28 27 27 26 26 26 25 25 25 25 26 27 27 27 27 28 28 28 28 29 28 28 29 29 30 30
37 36 36 36 35 34 33 33 33 33 33 32 32 32 31 30 30 30 30 29 28 27 27 27 27 28 28 28 28 29 30 29 30 30 30 30 30 30 30 31 31 31 32
38 38 38 38 38 37 36 36 35 34 34 33 33 34 33 32 33 33 33 32 31 29 29 29 29 29 29 30 30 30 31 31 31 31 31 31 32 33 33 33 33 33 33
40 40 40 40 39 39 39 37 36 36 35 35 35 35 34 35 35 35 35 34 34 33 31 31 31 31 31 31 32 32 31 31 32 32 32 32 32 33 33 33 33 33 34
42 42 40 40 39 39 39 38 36 35 36 36 35 36 36 37 36 35 35 35 35 34 34 33 33 33 33 34 34 34 34 33 34 34 34 34 34 34 35 35 35 35 36
41 42 42 41 40 40 40 38 36 35 36 36 35 35 35 35 35 35 36 36 36 36 36 35 35 35 35 36 36 36 35 35 35 35 35 35 36 36 36 36 37 37 38
Wind_Direction
23 26 28 29 29 30 30 32 35 36 35 35 34 34 34 37 42 42 43 24 299 229 208 208 220 235 236 236 240 244 245 248 254 264 270 267 270 271 274 272 270 270 271
19 23 27 28 27 27 26 28 31 32 31 30 30 31 32 35 32 24 22 5 301 254 225 229 245 255 257 258 256 255 256 259 261 267 272 276 276 276 277 278 276 274 275
15 19 23 25 24 23 22 22 25 26 26 24 25 27 27 27 26 21 14 359 338 315 269 261 263 266 269 273 269 269 272 272 269 268 272 275 281 281 282 282 280 276 276
9 14 17 19 19 20 20 21 21 21 22 22 20 20 21 20 15 9 6 3 349 328 310 283 275 275 278 281 278 274 274 275 273 273 275 277 281 283 284 287 286 282 278
358 5 8 10 11 14 16 18 19 18 18 19 19 16 17 18 13 6 357 357 352 330 318 302 285 282 282 283 281 277 276 278 279 279 279 279 280 282 283 285 286 285 282
343 352 357 360 2 5 9 11 12 12 10 11 13 10 7 6 5 1 351 342 334 319 313 308 298 291 290 288 287 283 280 279 281 281 282 283 283 283 282 281 282 283 284
328 337 346 352 352 356 1 2 1 4 3 2 4 2 358 357 355 348 344 332 320 312 308 307 306 299 289 290 290 288 287 286 285 283 283 284 285 283 282 282 283 284 284
316 327 339 348 347 346 350 354 354 356 358 357 358 358 355 353 351 342 337 330 317 311 309 308 306 305 297 291 292 292 291 290 290 288 286 286 285 283 280 281 283 284 286
302 314 328 336 339 339 340 341 344 345 345 345 347 348 344 343 343 334 329 328 323 319 315 312 308 305 304 302 293 292 292 291 292 291 289 288 286 286 282 281 283 284 285
290 302 313 321 325 327 325 325 330 336 338 338 338 341 337 335 336 332 327 324 323 325 320 316 314 312 309 310 306 298 295 296 296 293 291 290 285 286 285 284 285 285 284
283 291 303 311 316 317 316 318 317 323 327 329 330 330 331 332 331 329 328 326 322 322 323 320 316 314 309 308 308 306 302 302 303 299 294 294 289 291 289 291 291 287 286
279 287 294 301 305 312 312 316 313 318 320 320 321 322 322 326 327 325 323 321 319 318 316 313 311 309 309 307 305 306 305 305 305 301 296 294 293 290 289 291 290 288 287
271 280 286 292 294 298 304 306 304 308 310 310 311 313 315 317 317 315 315 315 313 310 310 309 306 303 303 303 304 305 305 304 304 302 297 294 295 292 291 292 290 289 289
271 277 282 287 288 288 295 295 297 299 300 301 302 303 305 307 306 307 307 307 307 305 304 304 304 299 298 298 298 300 301 303 304 303 300 298 297 294 293 293 292 290 291
271 274 276 280 283 285 289 290 293 294 294 295 295 295 297 299 299 299 299 298 300 299 297 297 299 296 295 296 297 297 297 299 301 302 301 300 299 299 296 295 294 294 293
270 274 278 277 279 284 286 289 291 292 292 292 289 289 291 292 291 292 293 293 294 297 295 289 290 291 290 289 291 294 294 297 299 299 300 301 301 299 298 296 294 293 293
269 272 275 277 279 281 284 286 288 290 292 294 290 288 287 289 288 287 290 289 291 295 298 296 289 287 288 290 289 290 292 294 296 297 297 298 300 299 298 296 294 294 294
266 268 268 272 275 277 278 281 284 288 288 289 291 288 285 284 284 283 285 287 288 290 294 295 294 291 294 293 290 288 290 293 294 294 295 298 299 299 299 296 293 293 294
263 264 265 266 270 274 275 278 281 284 286 286 287 287 287 283 280 281 283 284 285 287 289 291 293 293 292 292 292 291 288 289 291 293 295 296 296 297 297 296 295 295 295
261 261 263 265 267 272 275 277 279 281 283 284 285 287 287 284 282 282 284 282 283 284 286 287 287 288 289 289 289 291 288 288 289 290 293 294 294 294 295 295 295 294 294
261 262 263 265 268 270 273 276 276 278 281 283 282 282 284 283 283 283 282 281 280 283 284 283 285 287 288 287 287 289 290 288 288 289 290 292 292 293 295 295 294 294 294
261 262 264 267 267 270 272 275 275 277 278 279 280 280 281 280 281 283 283 283 280 282 283 283 284 285 286 288 287 287 288 289 288 288 288 290 292 293 294 293 294 294 293
260 262 264 267 269 270 271 274 274 276 276 278 279 279 279 278 279 280 282 284 283 282 284 286 285 285 287 287 290 288 286 286 287 289 289 291 292 292 292 292 293 293 293
259 261 264 266 268 270 271 271 272 275 277 278 277 277 278 278 278 279 280 282 284 284 286 287 288 287 287 288 289 287 286 286 286 287 289 291 292 292 292 292 293 294 294
258 261 264 266 266 268 270 270 270 272 275 276 275 276 276 277 277 279 281 282 284 284 285 285 285 287 286 288 288 286 284 285 286 288 289 290 291 292 292 292 292 293 293
259 261 262 265 266 266 268 267 268 271 273 273 273 274 274 277 277 280 281 283 285 285 283 282 282 283 285 285 287 286 284 284 286 286 286 287 288 290 291 292 292 292 293
Height
5911 5908 5906 5904 5902 5900 5898 5896 5895 5893 5892 5891 5890 5889 5888 5887 5886 5886 5885 5885 5885 5885 5885 5886 5887 5887 5887 5888 5888 5888 5889 5889 5890 5890 5890 5890 5890 5890 5890 5890 5890 5890 5890
5912 5910 5907 5905 5904 5902 5900 5898 5896 5895 5894 5892 5891 5890 5889 5888 5887 5886 5886 5885 5885 5885 5885 5886 5886 5886 5887 5887 5887 5888 5888 5888 5888 5889 5889 5889 5889 5889 5888 5888 5888 5888 5888
5913 5911 5908 5906 5905 5903 5901 5899 5898 5896 5895 5893 5892 5891 5890 5889 5888 5887 5887 5886 5885 5885 5885 5886 5886 5886 5886 5886 5887 5887 5887 5887 5887 5887 5887 5887 5887 5886 5886 5886 5885 5885 5885
5913 5911 5909 5907 5905 5904 5902 5900 5899 5897 5896 5894 5893 5891 5890 5890 5889 5888 5887 5886 5886 5885 5885 5885 5885 5885 5885 5885 5885 5885 5885 5885 5885 5885 5885 5885 5885 5884 5884 5883 5883 5882 5882
5913 5911 5909 5908 5906 5905 5903 5901 5900 5898 5896 5895 5893 5892 5891 5890 5889 5888 5887 5886 5886 5885 5885 5884 5884 5884 5884 5884 5884 5884 5884 5883 5883 5883 5883 5882 5882 5882 5881 5881 5880 5879 5879
5913 5911 5910 5908 5906 5905 5903 5902 5900 5899 5897 5896 5894 5893 5891 5890 5889 5888 5887 5886 5886 5885 5884 5883 5883 5882 5882 5882 5882 5882 5881 5881 5881 5881 5880 5880 5880 5879 5879 5878 5877 5876 5876
5912 5911 5909 5908 5906 5905 5903 5902 5901 5899 5898 5896 5895 5893 5892 5890 5889 5888 5887 5886 5885 5884 5883 5882 5882 5881 5880 5880 5880 5879 5879 5878 5878 5878 5877 5877 5877 5876 5876 5875 5874 5873 5872
5911 5910 5909 5907 5906 5904 5903 5902 5900 5899 5898 5896 5895 5893 5892 5890 5889 5888 5887 5886 5884 5883 5882 5881 5880 5879 5879 5878 5877 5877 5876 5876 5875 5875 5874 5873 5873 5872 5872 5871 5871 5870 5869
5909 5908 5907 5906 5904 5903 5902 5901 5900 5899 5897 5896 5894 5893 5891 5890 5889 5888 5886 5885 5883 5882 5881 5879 5879 5878 5877 5876 5875 5875 5874 5873 5872 5871 5871 5870 5869 5868 5868 5867 5867 5866 5865
5907 5906 5905 5904 5903 5902 5901 5900 5899 5897 5896 5895 5894 5892 5891 5889 5888 5887 5885 5884 5883 5881 5880 5878 5877 5876 5875 5874 5873 5872 5871 5870 5869 5868 5867 5866 5865 5864 5864 5863 5862 5861 5860
5904 5904 5903 5902 5901 5900 5899 5898 5897 5896 5895 5894 5892 5891 5889 5888 5887 5885 5884 5883 5882 5880 5879 5877 5875 5874 5873 5871 5871 5870 5868 5867 5866 5865 5864 5863 5862 5861 5860 5859 5858 5857 5856
5901 5900 5900 5899 5898 5897 5897 5896 5895 5894 5893 5892 5891 5890 5888 5886 5885 5884 5883 5882 5880 5879 5877 5875 5874 5872 5871 5869 5868 5867 5866 5865 5863 5862 5861 5860 5859 5858 5856 5855 5854 5853 5852
5897 5897 5896 5896 5895 5895 5894 5893 5892 5892 5891 5890 5889 5888 5886 5884 5883 5882 5880 5879 5878 5877 5875 5873 5872 5870 5868 5867 5866 5865 5863 5862 5860 5859 5858 5856 5855 5854 5853 5851 5850 5848 5847
5893 5893 5893 5893 5892 5891 5891 5889 5889 5888 5887 5886 5885 5884 5883 5881 5880 5879 5878 5876 5875 5873 5872 5870 5869 5867 5865 5864 5863 5862 5860 5859 5857 5856 5854 5853 5851 5850 5848 5847 5845 5844 5842
5888 5889 5889 5888 5888 5887 5886 5885 5884 5884 5883 5882 5881 5880 5879 5877 5876 5875 5874 5872 5871 5869 5867 5866 5865 5863 5862 5860 5859 5858 5857 5855 5853 5852 5850 5849 5847 5845 5844 5842 5841 5839 5837
5883 5883 5883 5882 5882 5882 5882 5881 5881 5880 5879 5878 5876 5875 5874 5873 5871 5870 5869 5868 5866 5864 5863 5861 5860 5859 5857 5856 5854 5853 5852 5851 5849 5848 5846 5844 5842 5840 5839 5837 5835 5833 5832
5876 5877 5877 5876 5877 5877 5877 5876 5876 5875 5873 5872 5871 5869 5868 5866 5865 5864 5863 5862 5861 5859 5857 5855 5853 5853 5851 5850 5849 5848 5847 5846 5844 5842 5841 5839 5837 5835 5833 5831 5829 5827 5825
5869 5869 5869 5870 5871 5870 5870 5870 5869 5869 5868 5866 5865 5863 5861 5859 5857 5856 5856 5855 5854 5853 5852 5849 5848 5847 5846 5844 5843 5842 5841 5840 5838 5836 5834 5833 5831 5829 5827 5825 5823 5821 5819
5861 5862 5862 5862 5863 5863 5862 5862 5862 5861 5860 5859 5857 5855 5854 5851 5849 5849 5849 5848 5848 5847 5846 5844 5842 5841 5840 5839 5837 5836 5835 5833 5832 5830 5828 5827 5825 5823 5821 5819 5817 5815 5812
5853 5853 5854 5854 5854 5855 5855 5855 5854 5854 5853 5851 5850 5848 5847 5844 5843 5842 5841 5841 5840 5839 5838 5837 5836 5835 5834 5832 5831 5829 5828 5826 5825 5823 5822 5820 5818 5816 5814 5812 5810 5808 5805
5843 5844 5844 5845 5846 5846 5846 5846 5846 5845 5844 5843 5842 5841 5839 5837 5836 5835 5834 5833 5833 5831 5830 5829 5829 5828 5827 5825 5824 5822 5821 5819 5818 5816 5814 5812 5810 5808 5806 5804 5802 5800 5797
5833 5834 5834 5835 5836 5836 5837 5837 5837 5836 5835 5834 5833 5832 5831 5830 5828 5827 5827 5825 5824 5823 5822 5821 5821 5820 5819 5818 5816 5815 5813 5811 5810 5808 5806 5804 5802 5800 5798 5796 5793 5791 5789
5822 5824 5824 5825 5825 5825 5826 5826 5826 5825 5825 5824 5824 5823 5822 5821 5821 5820 5818 5816 5815 5814 5813 5813 5812 5812 5810 5809 5807 5806 5804 5802 5801 5799 5798 5796 5793 5791 5789 5786 5784 5782 5779
5812 5813 5814 5815 5815 5815 5814 5814 5814 5814 5814 5814 5814 5813 5813 5812 5811 5810 5809 5808 5807 5806 5804 5803 5803 5801 5800 5799 5798 5796 5794 5793 5791 5790 5788 5786 5784 5782 5779 5777 5775 5772 5770
5800 5802 5803 5803 5804 5804 5804 5803 5803 5803 5803 5804 5803 5802 5802 5802 5801 5800 5799 5798 5797 5796 5795 5794 5793 5792 5791 5789 5788 5786 5784 5782 5781 5779 5778 5776 5774 5772 5769 5767 5765 5762 5760
5788 5789 5790 5791 5792 5793 5793 5792 5791 5791 5792 5792 5792 5792 5792 5791 5791 5790 5789 5788 5787 5785 5783 5783 5783 5782 5781 5779 5777 5776 5774 5772 5771 5769 5767 5765 5763 5761 5759 5756 5754 5751 5749